Location: Beddau
(51.5575°N, 3.3561°W)
Time: 17:51:08
(UTC+00:00)

USA 305 - Pass Details

Date: 03 March 2021
Orbit: 567 x 574 km, 54.0° (Epoch: 13 April)

Event Time Altitude Azimuth Distance (km) Brightness Sun altitude
Rises 19:43:03 0° 277° (W) 2,780 8.2 -17.1°
Reaches altitude 10° 19:45:20 10° 281° (W) 1,881 6.9 -17.5°
Maximum altitude 19:49:34 62° 2° (N) 649 3.1 -18.1°
Enters shadow 19:51:05 37° 68° (ENE) 905 3.5 -18.3°
